Humidity-temperature Sensor

Selected Measurement Type: Relative Humidity

 
Relative Humidity [%]     6 entries per hour
Showing data from 11/30/2015 (00:00:00 Z) to 11/23/2015 (00:01:00 Z)
Previous Next [ Day | 3-Days | 7-Days ]
First Last
Prev [ Day | 3-Days | 7-Days ] Next
First Last

Start Time:     :
End Time:     :     
Time (in GMT) :00 :50 :40 :30 :20 :10
Previous Next [ Day | 3-Days | 7-Days ]
First Last
Prev [ Day | 3-Days | 7-Days ] Next
First Last


123 => good data
MM => data is determined as missing
-- => data not received/configured
Back to Top Back to Top
11/30/2015 00:00 to 23:10 86.11 85.46 86.71 87.13 89.08 94.42
11/29/2015 23:00 to 22:10 95.63 95.69 96.13 93.36 88.41 88.17
11/29/2015 22:00 to 21:10 87.89 90.22 88.77 88.35 88.33 90.76
11/29/2015 21:00 to 20:10 91.35 91.80 89.81 86.17 86.79 85.82
11/29/2015 20:00 to 19:10 86.65 86.96 87.23 87.21 87.48 87.75
11/29/2015 19:00 to 18:10 87.31 86.71 89.08 89.47 87.46 89.16
11/29/2015 18:00 to 17:10 91.24 91.32 91.97 91.12 90.47 92.76
11/29/2015 17:00 to 16:10 92.36 91.93 89.64 88.62 89.47 89.68
11/29/2015 16:00 to 15:10 91.70 88.17 91.45 92.41 92.68 93.09
11/29/2015 15:00 to 14:10 92.53 89.83 90.83 91.55 91.10 90.43
11/29/2015 14:00 to 13:10 90.56 90.85 92.20 92.22 92.01 92.84
11/29/2015 13:00 to 12:10 92.49 90.93 91.28 89.75 90.18 89.91
11/29/2015 12:00 to 11:10 90.18 90.29 90.81 90.91 91.39 91.39
11/29/2015 11:00 to 10:10 91.51 90.97 90.87 90.51 89.41 89.72
11/29/2015 10:00 to 9:10 90.24 90.56 90.12 89.72 90.39 94.19
11/29/2015 09:00 to 8:10 93.26 93.36 93.53 93.34 92.70 91.89
11/29/2015 08:00 to 7:10 91.91 92.28 91.87 91.68 91.64 92.39
11/29/2015 07:00 to 6:10 93.55 92.34 89.08 88.46 89.39 89.41
11/29/2015 06:00 to 5:10 90.37 92.11 92.39 89.83 88.62 85.88
11/29/2015 05:00 to 4:10 85.13 91.12 87.73 87.04 91.41 91.41
11/29/2015 04:00 to 3:10 89.47 86.32 88.21 89.25 88.35 87.48
11/29/2015 03:00 to 2:10 87.08 86.11 85.71 85.50 85.05 84.94
11/29/2015 02:00 to 1:10 83.65 85.71 86.44 86.34 85.77 83.68
11/29/2015 01:00 to 0:10 85.36 84.49 83.47 83.20 82.37 82.34
11/29/2015 00:00 to 23:10 81.72 85.57 87.21 84.92 83.05 84.03
11/28/2015 23:00 to 22:10 84.71 86.40 84.65 84.36 85.77 83.70
11/28/2015 22:00 to 21:10 83.72 84.71 85.17 84.94 85.25 84.84
11/28/2015 21:00 to 20:10 85.07 86.79 86.07 83.26 84.11 85.40
11/28/2015 20:00 to 19:10 85.80 84.74 85.19 85.09 87.08 86.34
11/28/2015 19:00 to 18:10 85.96 85.82 86.36 85.92 89.00 88.02
11/28/2015 18:00 to 17:10 85.63 85.19 83.90 85.55 85.07 84.40
11/28/2015 17:00 to 16:10 83.74 83.78 82.18 83.99 82.78 80.25
11/28/2015 16:00 to 15:10 78.40 76.46 80.10 79.83 81.93 87.75
11/28/2015 15:00 to 14:10 91.76 88.10 81.58 82.80 87.77 94.42
11/28/2015 14:00 to 13:10 -- 95.30 88.31 87.96 88.04 87.42
11/28/2015 13:00 to 12:10 86.77 84.53 84.36 86.69 86.98 87.33
11/28/2015 12:00 to 11:10 86.46 83.74 84.03 83.18 80.41 82.84
11/28/2015 11:00 to 10:10 82.74 82.01 81.60 84.07 86.52 84.55
11/28/2015 10:00 to 9:10 84.61 85.61 84.11 86.09 91.93 84.53
11/28/2015 09:00 to 8:10 82.59 82.51 81.08 83.07 83.92 83.43
11/28/2015 08:00 to 7:10 82.80 80.89 80.81 82.76 85.13 83.11
11/28/2015 07:00 to 6:10 84.69 84.78 83.16 85.63 84.78 87.00
11/28/2015 06:00 to 5:10 83.76 83.65 83.34 83.38 85.21 85.19
11/28/2015 05:00 to 4:10 82.39 83.16 81.33 79.58 79.83 80.33
11/28/2015 04:00 to 3:10 82.34 84.53 83.03 84.03 80.83 80.66
11/28/2015 03:00 to 2:10 81.01 82.03 84.86 88.08 93.36 91.18
11/28/2015 02:00 to 1:10 87.87 81.49 90.41 96.04 94.98 95.86
11/28/2015 01:00 to 0:10 97.83 97.00 91.76 94.28 92.78 89.58
11/28/2015 00:00 to 23:10 90.43 91.20 89.89 91.80 91.20 91.93
11/27/2015 23:00 to 22:10 88.93 87.60 89.41 95.88 98.06 98.48
11/27/2015 22:00 to 21:10 98.31 99.64 98.41 95.63 81.01 79.66
11/27/2015 21:00 to 20:10 80.76 79.93 81.43 81.95 83.36 83.47
11/27/2015 20:00 to 19:10 82.86 82.53 82.72 89.64 91.30 94.61
11/27/2015 19:00 to 18:10 95.05 96.67 88.46 84.76 98.37 89.10
11/27/2015 18:00 to 17:10 96.56 95.32 -- -- -- --
11/27/2015 17:00 to 16:10 -- -- -- 99.39 89.64 84.63
11/27/2015 16:00 to 15:10 84.94 84.44 82.45 80.60 82.45 81.97
11/27/2015 15:00 to 14:10 83.84 85.11 83.36 81.97 82.10 81.78
11/27/2015 14:00 to 13:10 81.14 84.19 84.63 84.19 82.32 83.76
11/27/2015 13:00 to 12:10 84.44 85.32 88.21 96.77 -- --
11/27/2015 12:00 to 11:10 -- -- -- -- -- 99.64
11/27/2015 11:00 to 10:10 97.81 93.76 83.51 84.80 89.97 92.20
11/27/2015 10:00 to 9:10 92.01 91.89 88.12 78.73 78.75 80.18
11/27/2015 09:00 to 8:10 79.43 80.89 82.20 80.54 80.72 80.06
11/27/2015 08:00 to 7:10 80.89 80.54 81.58 81.33 81.22 81.41
11/27/2015 07:00 to 6:10 80.22 79.66 79.79 80.87 81.01 82.47
11/27/2015 06:00 to 5:10 85.32 84.34 83.45 82.72 80.74 80.00
11/27/2015 05:00 to 4:10 79.83 78.19 78.42 78.23 77.56 77.50
11/27/2015 04:00 to 3:10 79.23 79.35 77.69 77.69 77.04 77.85
11/27/2015 03:00 to 2:10 77.17 78.91 79.41 80.79 79.77 79.14
11/27/2015 02:00 to 1:10 78.19 77.06 76.94 77.44 77.61 78.85
11/27/2015 01:00 to 0:10 78.42 77.54 78.25 78.46 78.42 79.21
11/27/2015 00:00 to 23:10 77.65 76.32 74.36 74.53 77.56 75.90
11/26/2015 23:00 to 22:10 75.46 74.67 76.61 78.67 79.39 79.79
11/26/2015 22:00 to 21:10 79.46 78.73 77.48 77.33 77.21 76.34
11/26/2015 21:00 to 20:10 74.63 77.21 77.63 79.02 79.73 79.23
11/26/2015 20:00 to 19:10 79.16 78.37 78.69 77.94 77.61 77.38
11/26/2015 19:00 to 18:10 77.02 76.67 76.77 76.65 76.94 78.37
11/26/2015 18:00 to 17:10 77.81 78.19 77.25 77.54 78.02 77.29
11/26/2015 17:00 to 16:10 76.69 76.36 76.77 75.94 76.40 75.73
11/26/2015 16:00 to 15:10 76.63 77.58 76.88 76.48 76.59 77.33
11/26/2015 15:00 to 14:10 78.00 79.21 80.79 80.47 80.91 80.58
11/26/2015 14:00 to 13:10 80.45 81.51 82.49 82.24 82.57 82.53
11/26/2015 13:00 to 12:10 82.10 83.16 84.76 83.90 83.70 81.64
11/26/2015 12:00 to 11:10 81.26 80.06 80.16 79.50 78.77 78.58
11/26/2015 11:00 to 10:10 78.08 78.54 78.42 79.43 79.39 79.25
11/26/2015 10:00 to 9:10 78.04 78.08 79.31 78.89 78.98 79.35
11/26/2015 09:00 to 8:10 79.08 78.27 77.81 77.75 77.04 77.73
11/26/2015 08:00 to 7:10 76.38 76.86 76.67 76.90 75.90 75.73
11/26/2015 07:00 to 6:10 77.42 76.71 77.17 76.84 77.09 76.88
11/26/2015 06:00 to 5:10 75.53 75.42 74.53 73.84 73.93 73.24
11/26/2015 05:00 to 4:10 73.72 72.03 71.45 70.37 71.97 71.87
11/26/2015 04:00 to 3:10 72.39 72.41 72.80 73.70 73.24 74.05
11/26/2015 03:00 to 2:10 73.74 73.41 73.49 72.95 73.55 72.97
11/26/2015 02:00 to 1:10 73.95 74.34 75.24 73.74 74.36 73.80
11/26/2015 01:00 to 0:10 73.61 73.34 73.09 72.97 73.03 73.63
11/26/2015 00:00 to 23:10 74.42 74.42 74.42 74.92 74.61 75.57
11/25/2015 23:00 to 22:10 76.19 76.25 76.11 76.03 74.74 75.61
11/25/2015 22:00 to 21:10 75.76 77.77 77.50 77.19 76.65 76.71
11/25/2015 21:00 to 20:10 75.34 75.44 74.82 75.36 75.76 77.25
11/25/2015 20:00 to 19:10 77.02 77.54 77.17 74.32 76.15 76.92
11/25/2015 19:00 to 18:10 77.36 76.07 75.69 75.34 76.73 75.13
11/25/2015 18:00 to 17:10 76.82 76.17 76.03 75.59 74.92 75.34
11/25/2015 17:00 to 16:10 75.13 75.13 76.17 75.34 77.19 74.32
11/25/2015 16:00 to 15:10 76.38 75.46 77.46 76.65 77.65 76.69
11/25/2015 15:00 to 14:10 77.56 78.23 78.17 79.06 78.87 78.29
11/25/2015 14:00 to 13:10 78.71 79.29 79.66 81.31 80.29 79.54
11/25/2015 13:00 to 12:10 78.81 78.85 79.02 79.27 81.89 81.64
11/25/2015 12:00 to 11:10 80.97 80.54 80.56 80.70 82.84 80.35
11/25/2015 11:00 to 10:10 77.79 78.62 78.10 80.41 82.49 79.48
11/25/2015 10:00 to 9:10 79.97 81.95 81.08 81.53 81.51 81.51
11/25/2015 09:00 to 8:10 80.76 80.89 81.62 80.25 81.60 80.12
11/25/2015 08:00 to 7:10 80.68 81.72 80.02 80.12 79.23 79.02
11/25/2015 07:00 to 6:10 81.72 80.10 80.83 80.85 78.54 78.21
11/25/2015 06:00 to 5:10 78.08 78.15 80.95 80.22 80.62 81.10
11/25/2015 05:00 to 4:10 80.62 80.68 80.33 80.66 79.89 80.45
11/25/2015 04:00 to 3:10 80.95 79.87 79.83 79.14 79.85 80.14
11/25/2015 03:00 to 2:10 79.73 79.62 79.43 79.21 77.96 76.50
11/25/2015 02:00 to 1:10 78.48 79.16 79.81 80.47 79.35 78.83
11/25/2015 01:00 to 0:10 79.08 81.16 86.25 89.29 89.35 89.47
11/25/2015 00:00 to 23:10 90.31 90.20 90.12 90.66 84.51 83.28
11/24/2015 23:00 to 22:10 85.88 87.48 88.12 87.96 82.22 79.87
11/24/2015 22:00 to 21:10 78.15 78.54 78.42 78.62 79.75 78.69
11/24/2015 21:00 to 20:10 78.75 78.85 80.62 79.77 79.97 79.37
11/24/2015 20:00 to 19:10 78.75 78.33 77.06 76.98 79.10 79.79
11/24/2015 19:00 to 18:10 79.12 77.98 78.52 77.09 77.21 77.56
11/24/2015 18:00 to 17:10 78.29 77.94 77.98 78.08 78.75 78.50
11/24/2015 17:00 to 16:10 77.33 77.02 77.81 75.82 75.32 75.67
11/24/2015 16:00 to 15:10 76.48 77.02 77.17 77.36 77.40 77.96
11/24/2015 15:00 to 14:10 78.12 79.56 79.64 80.08 79.77 79.73
11/24/2015 14:00 to 13:10 81.31 80.66 81.08 79.97 80.18 79.95
11/24/2015 13:00 to 12:10 79.14 80.14 80.27 79.93 82.72 81.41
11/24/2015 12:00 to 11:10 81.35 81.45 88.06 90.76 90.60 89.85
11/24/2015 11:00 to 10:10 89.77 87.81 87.85 87.85 88.35 87.89
11/24/2015 10:00 to 9:10 88.14 89.00 87.67 85.65 83.61 83.80
11/24/2015 09:00 to 8:10 83.86 84.44 85.86 86.63 85.42 81.33
11/24/2015 08:00 to 7:10 82.12 80.95 78.77 78.89 79.04 79.52
11/24/2015 07:00 to 6:10 79.77 79.73 79.62 78.54 79.48 78.94
11/24/2015 06:00 to 5:10 77.77 77.25 78.42 78.17 77.81 78.52
11/24/2015 05:00 to 4:10 78.08 78.27 78.10 82.64 83.55 83.28
11/24/2015 04:00 to 3:10 84.01 83.70 82.93 81.14 81.14 80.79
11/24/2015 03:00 to 2:10 80.72 81.43 82.01 80.79 79.46 79.27
11/24/2015 02:00 to 1:10 80.10 80.04 79.62 78.64 79.10 78.96
11/24/2015 01:00 to 0:10 77.54 78.42 76.48 77.79 77.69 79.06
11/24/2015 00:00 to 23:10 77.65 77.88 77.71 77.48 76.42 75.44
11/23/2015 23:00 to 22:10 76.92 77.42 77.25 77.81 76.84 76.77
11/23/2015 22:00 to 21:10 76.52 76.27 77.58 76.82 76.09 78.10
11/23/2015 21:00 to 20:10 77.42 77.27 76.36 77.52 78.15 77.71
11/23/2015 20:00 to 19:10 78.15 77.00 75.80 75.55 76.67 75.38
11/23/2015 19:00 to 18:10 75.01 75.24 76.38 75.76 77.13 76.61
11/23/2015 18:00 to 17:10 78.71 77.94 77.38 76.94 77.27 76.86
11/23/2015 17:00 to 16:10 76.07 75.92 77.56 76.65 76.07 74.74
11/23/2015 16:00 to 15:10 77.19 75.24 74.11 76.13 75.15 74.47
11/23/2015 15:00 to 14:10 75.76 74.63 76.00 76.17 76.11 77.50
11/23/2015 14:00 to 13:10 77.54 77.06 76.63 77.54 78.35 78.98
11/23/2015 13:00 to 12:10 77.11 78.27 78.00 76.34 79.08 78.08
11/23/2015 12:00 to 11:10 78.56 79.56 77.71 80.58 80.76 79.50
11/23/2015 11:00 to 10:10 78.71 77.31 78.54 78.42 78.17 78.56
11/23/2015 10:00 to 9:10 78.10 78.44 78.37 79.62 81.18 79.25
11/23/2015 09:00 to 8:10 79.08 80.91 79.91 80.79 80.00 80.27
11/23/2015 08:00 to 7:10 77.73 78.67 79.75 78.10 77.71 78.85
11/23/2015 07:00 to 6:10 79.93 81.31 79.93 81.06 80.00 80.43
11/23/2015 06:00 to 5:10 80.58 80.74 79.50 79.31 80.54 79.10
11/23/2015 05:00 to 4:10 78.27 78.25 79.14 80.04 81.43 79.50
11/23/2015 04:00 to 3:10 78.96 79.21 78.71 78.19 77.81 78.00
11/23/2015 03:00 to 2:10 77.61 77.61 77.79 76.44 75.21 75.26
11/23/2015 02:00 to 1:10 77.19 79.46 79.43 78.40 77.19 77.92
11/23/2015 01:00 to 0:10 77.90 77.44 76.40 75.94 77.54 76.65